Starlink 4506

operational
NORAD ID: 53554 Int'l Des: 2022-101 Owner: SPXS Country: US Constellation: starlink
LEOCIRCULAR

About Starlink 4506

Description loading...

Live Position

Loading 3D Globe...

Upcoming Passes

Altitude History

Altitude vs Time

uPlot chart will show altitude changes over time

Two-Line Element Set

1 53554U 22101AD 26020.03977354 .00001620 00000-0 11987-3 0 9994
2 53554 53.2176 282.5288 0001389 83.0394 277.0756 15.08839546188966
Epoch: Jan 20, 2026 • Age: 19 hours

Current Status

Altitude 559.3 km
Velocity 7.58 km/s
Sub-Earth Point -53.34°S, 136.77°E
Launch Date Aug 19, 2022
Age 3.4 years
Type internet

Technical Details

Classification Payload
Mass 300.00 kg
Dry Mass 290.00 kg
Total Mass 300.00 kg
Length 0.20 m
Diameter 2.80 m
Span 9.00 m
Shape Box + pan
Manufacturer SPXS
Bus Type Starlink
Phase Status In Orbit
Owner/State SPXS/US

Large Constellations

Loading constellations...